Weather reports worldwide

Advertisment
Aurillac, France (7549): temperature & dewpoint: 16.06.2018 15:00:00 - 22.06.2018 15:00:00 (CEST)Aurillac, France (7549): temperature 5cm: 16.06.2018 15:00:00 - 22.06.2018 15:00:00 (CEST)Aurillac, France (7549): temperature -20cm & temperature -100cm: 16.06.2018 15:00:00 - 22.06.2018 15:00:00 (CEST)Aurillac, France (7549): wind speed & gusts: 16.06.2018 15:00:00 - 22.06.2018 15:00:00 (CEST)Aurillac, France (7549): wind direction: 16.06.2018 15:00:00 - 22.06.2018 15:00:00 (CEST)Aurillac, France (7549): reduced air pressure: 16.06.2018 15:00:00 - 22.06.2018 15:00:00 (CEST)Aurillac, France (7549): visibility: 16.06.2018 15:00:00 - 22.06.2018 15:00:00 (CEST)Aurillac, France (7549): sunshine duration: 16.06.2018 15:00:00 - 22.06.2018 15:00:00 (CEST)Aurillac, France (7549): precipitation: 16.06.2018 15:00:00 - 22.06.2018 15:00:00 (CEST)
Date & Time tt [°C] td [°C] tt 5cm [°C] tt -20cm [°C] tt -100cm [°C] ff [km/h] ff [kn] fx [km/h] fx [kn] dd ppp [hPa] vv [km] sd [min] rr [mm]
22.06.2018 15:00:00 22,7 -2,9 29,6 19,4 15,1 17 9 29 16 NNE 1019,1 20 60 0,0
22.06.2018 14:00:00 22,5 2,6 30,0 19,4 15,1 11 6 24 13 NE 1019,2 19 60 0,0
22.06.2018 13:00:00 21,8 5,6 28,9 19,4 15,1 8 5 19 10 SE 1019,4 20 60 0,0
22.06.2018 12:00:00 20,9 9,2 27,7 19,5 15,1 9 5 18 10 SE 1019,6 20 60 0,0
22.06.2018 11:00:00 18,9 12,4 20,5 19,6 15,1 6 4 20 11 SW 1019,7 19 48 0,0
22.06.2018 10:00:00 17,5 12,6 21,3 19,6 15,1 7 4 13 7 WNW 1019,7 19 55 0,0
22.06.2018 09:00:00 15,6 13,3 19,0 19,7 15,1 9 5 12 6 NW 1020,0 19 60 0,0
22.06.2018 08:00:00 15,8 12,0 11,9 19,8 15,1 4 2 10 5 NW 1019,9 13 60 0,0
22.06.2018 07:00:00 12,8 12,3 7,5 19,9 15,1 0 0 8 4 N 1020,3 14 20 0,0
22.06.2018 06:00:00 12,9 12,6 8,0 19,9 15,1 5 3 7 4 E 1020,3 11 0 0,0
22.06.2018 05:00:00 13,8 13,0 8,5 20,0 15,1 2 1 7 4 SW 1019,7 3,8 0 0,0
22.06.2018 04:00:00 14,9 13,8 12,4 20,1 15,1 5 3 11 6 SW 1019,6 17 0 0,0
22.06.2018 03:00:00 15,6 14,1 13,1 20,1 15,1 5 3 9 5 SSW 1019,4 3,3 0 0,0
22.06.2018 02:00:00 16,6 14,6 13,3 20,1 15,1 7 4 10 5 SW 1019,3 20 0 0,0
22.06.2018 01:00:00 17,7 15,0 14,4 20,1 15,1 6 3 10 5 W 1019,1 36 0 0,0
22.06.2018 00:00:00 19,2 14,2 16,1 20,0 15,1 3 2 16 9 WNW 1018,7 43 0 0,0
21.06.2018 23:00:00 20,9 14,1 18,7 20,0 15,1 7 4 24 13 N 1018,2 56 0 0,0
21.06.2018 22:00:00 22,1 13,4 19,8 19,9 15,1 11 6 21 11 NNW 1016,9 60 6 0,0
21.06.2018 21:00:00 24,3 13,5 22,1 19,8 15,1 13 7 25 14 WNW 1016,2 60 41 0,0
21.06.2018 20:00:00 26,4 14,2 26,4 19,7 15,1 18 10 29 16 WNW 1015,5 32 48 0,0
21.06.2018 19:00:00 27,3 15,6 26,4 19,6 15,1 16 9 29 16 NW 1015,0 60 34 0,0
21.06.2018 18:00:00 25,9 16,7 25,9 19,5 15,1 10 5 24 13 NW 1015,6 56 6 0,0
21.06.2018 17:00:00 27,4 16,7 27,3 19,4 15,1 19 11 27 15 WNW 1015,4 20 34 0,0
21.06.2018 16:00:00 28,0 16,0 29,7 19,3 15,0 12 6 29 16 WNW 1015,5 31 53 0,0
21.06.2018 15:00:00 27,7 15,4 27,2 19,2 15,0 10 5 27 15 WNW 1015,8 20 45 0,0
21.06.2018 14:00:00 27,2 14,9 28,1 19,2 15,0 13 7 24 13 NW 1016,1 20 53 0,0
21.06.2018 13:00:00 26,6 15,6 27,8 19,2 15,1 11 6 23 13 NNW 1016,5 60 52 0,0
21.06.2018 12:00:00 26,4 16,9 31,5 19,2 15,0 10 6 22 12 NW 1016,7 20 60 0,0
21.06.2018 11:00:00 25,0 16,4 30,8 19,2 15,0 9 5 16 8 NNW 1016,9 19 60 0,0
21.06.2018 10:00:00 24,2 16,7 27,4 19,3 15,0 5 3 10 5 SW 1017,4 19 60 0,0
21.06.2018 09:00:00 21,7 16,2 21,5 19,4 15,0 6 3 11 6 E 1018,0 19 57 0,0
21.06.2018 08:00:00 18,4 15,1 15,9 19,4 15,0 6 3 11 6 E 1018,9 37 38 0,0
21.06.2018 07:00:00 16,4 13,9 13,5 19,5 15,0 7 4 13 7 E 1019,0 34 31 0,0
21.06.2018 06:00:00 15,4 13,4 13,1 19,6 15,0 10 5 13 7 E 1019,2 45 0 0,0
21.06.2018 05:00:00 15,4 13,4 13,7 19,6 15,0 11 6 14 7 E 1019,2 51 0 0,0
21.06.2018 04:00:00 16,4 13,5 14,1 19,6 15,0 11 6 15 8 E 1019,1 56 0 0,0
21.06.2018 03:00:00 16,3 13,8 13,2 19,6 15,0 11 6 14 7 E 1019,4 48 0 0,0
21.06.2018 02:00:00 16,9 13,8 13,6 19,6 15,0 5 3 13 7 E 1019,4 57 0 0,0
21.06.2018 01:00:00 17,2 14,1 14,7 19,6 15,0 9 5 15 8 E 1019,3 56 0 0,0
21.06.2018 00:00:00 18,9 14,8 15,5 19,5 15,0 8 4 10 5 E 1018,9 58 0 0,0
20.06.2018 23:00:00 20,7 14,6 16,1 19,4 15,0 6 3 9 5 E 1018,6 59 0 0,0
20.06.2018 22:00:00 24,2 15,7 18,7 19,2 15,0 4 2 10 5 NNW 1016,9 46 5 0,0
20.06.2018 21:00:00 27,9 13,0 23,1 19,1 15,0 5 3 11 6 WNW 1015,8 60 60 0,0
20.06.2018 20:00:00 29,0 12,0 28,9 18,9 15,0 7 4 13 7 WNW 1015,4 47 60 0,0
20.06.2018 19:00:00 29,2 11,7 34,1 18,7 15,0 7 4 15 8 SW 1015,3 60 60 0,0
20.06.2018 18:00:00 29,0 12,8 34,6 18,7 15,1 9 5 18 10 W 1015,7 58 60 0,0
20.06.2018 17:00:00 29,0 12,4 36,4 18,5 15,0 5 3 18 10 S 1015,9 20 60 0,0
20.06.2018 16:00:00 28,9 15,1 36,1 18,4 15,0 4 2 20 11 SSW 1016,1 60 60 0,0
20.06.2018 15:00:00 28,1 15,0 36,1 18,3 15,0 4 2 17 9 NNW 1016,4 19 60 0,0
20.06.2018 14:00:00 27,8 14,1 35,5 18,3 15,0 8 5 14 7 S 1016,9 60 60 0,0
20.06.2018 13:00:00 26,6 13,7 33,9 18,2 15,0 6 3 15 8 E 1017,5 20 60 0,0
20.06.2018 12:00:00 26,2 14,0 32,2 18,3 15,0 6 3 14 7 ESE 1017,8 19 60 0,0
20.06.2018 11:00:00 24,8 14,9 29,7 18,3 15,0 8 5 17 9 SE 1018,2 19 60 0,0
20.06.2018 10:00:00 23,8 15,3 27,3 18,4 15,0 11 6 19 10 ESE 1018,5 60 60 0,0
20.06.2018 09:00:00 21,8 15,2 23,4 18,4 15,0 5 3 12 6 ESE 1019,0 19 60 0,0
20.06.2018 08:00:00 19,8 13,9 15,0 18,5 15,0 5 3 8 4 ENE 1019,5 51 60 0,0
20.06.2018 07:00:00 16,3 11,7 9,1 18,6 15,0 6 4 10 5 E 1020,4 57 31 0,0
20.06.2018 06:00:00 14,8 11,4 8,8 18,6 15,0 4 2 11 6 NE 1020,7 60 0 0,0
20.06.2018 05:00:00 16,3 12,6 11,7 18,6 15,0 6 3 11 6 E 1020,3 60 0 0,0
20.06.2018 04:00:00 17,2 12,9 13,6 18,6 15,0 8 4 14 8 E 1020,1 60 0 0,0
20.06.2018 03:00:00 17,5 13,6 13,0 18,7 15,0 6 4 15 8 E 1020,1 60 0 0,0
20.06.2018 02:00:00 17,4 13,3 12,0 18,6 15,0 8 5 18 10 ENE 1020,6 60 0 0,0
20.06.2018 01:00:00 16,9 13,2 12,2 18,6 15,0 7 4 10 6 ENE 1020,9 60 0 0,0
20.06.2018 00:00:00 17,6 13,5 13,3 18,5 15,0 5 3 9 5 E 1020,9 60 0 0,0
19.06.2018 23:00:00 19,4 14,2 13,7 18,4 15,0 6 4 11 6 E 1020,3 60 0 0,0
19.06.2018 22:00:00 21,0 13,9 14,2 18,3 15,0 4 2 13 7 NE 1019,7 51 13 0,0
19.06.2018 21:00:00 23,9 14,3 21,8 18,2 15,0 10 5 24 13 E 1018,7 60 60 0,0
19.06.2018 20:00:00 25,1 13,6 25,9 18,0 15,0 16 9 25 13 E 1018,7 60 60 0,0
19.06.2018 19:00:00 26,1 13,9 30,3 17,9 15,0 10 6 23 13 E 1018,5 60 60 0,0
19.06.2018 18:00:00 26,1 13,9 31,2 17,7 15,0 14 7 33 18 E 1018,8 60 60 0,0
19.06.2018 17:00:00 25,8 12,6 31,1 17,6 15,0 17 9 30 16 E 1019,3 59 60 0,0
19.06.2018 16:00:00 25,9 12,4 31,5 17,5 15,0 16 9 31 17 E 1019,5 60 60 0,0
19.06.2018 15:00:00 25,5 12,3 33,2 17,4 15,0 4 2 17 9 E 1019,9 18 60 0,0
19.06.2018 14:00:00 24,3 13,8 31,3 17,4 15,0 5 3 19 10 SSE 1020,7 20 60 0,0
19.06.2018 13:00:00 23,0 12,9 30,3 17,4 15,0 7 4 22 12 SE 1021,2 60 60 0,0
19.06.2018 12:00:00 21,5 13,1 28,0 17,4 14,9 4 2 16 8 NW 1022,0 - 60 0,0
19.06.2018 11:00:00 19,7 12,2 26,0 17,5 15,0 6 4 13 7 NNW 1022,7 18 60 0,0
19.06.2018 10:00:00 17,9 13,2 22,3 17,5 15,0 6 4 11 6 WNW 1023,3 19 60 0,0
19.06.2018 09:00:00 15,6 12,7 17,2 17,6 14,9 4 2 7 4 NW 1024,1 16 60 0,0
19.06.2018 08:00:00 12,4 11,3 11,1 17,7 15,0 4 2 11 6 SW 1025,3 17 60 0,0
19.06.2018 07:00:00 11,1 10,3 5,8 17,7 15,0 5 3 8 4 NNE 1025,4 19 31 0,0
19.06.2018 06:00:00 10,0 9,7 5,5 17,8 15,0 4 2 5 3 ENE 1025,7 0,7 0 0,0
19.06.2018 05:00:00 10,8 10,5 6,3 17,8 14,9 0 0 9 5 N 1025,3 3,0 0 0,2
19.06.2018 04:00:00 11,8 10,5 7,9 17,9 15,0 7 4 11 6 NNE 1025,0 59 0 0,0
19.06.2018 03:00:00 12,2 11,3 8,3 17,9 15,0 6 3 12 6 N 1025,2 48 0 0,0
19.06.2018 02:00:00 13,0 11,6 9,4 17,9 15,0 5 3 9 5 NE 1025,2 32 0 0,0
19.06.2018 01:00:00 13,8 12,9 11,1 17,9 15,0 0 0 13 7 N 1025,2 19 0 0,0
19.06.2018 00:00:00 14,7 13,4 13,3 17,8 14,9 9 5 16 9 WNW 1025,1 20 0 0,0
18.06.2018 23:00:00 15,1 13,5 13,1 17,8 15,0 8 5 13 7 WNW 1024,9 20 0 0,0
18.06.2018 22:00:00 16,2 13,5 14,9 17,8 15,0 8 4 26 14 NW 1023,9 40 13 0,0
18.06.2018 21:00:00 18,0 13,7 17,4 17,7 15,0 16 9 33 18 NW 1023,1 20 30 0,0
18.06.2018 20:00:00 19,1 13,9 19,2 17,6 15,0 20 11 34 19 NW 1022,8 19 47 0,0
18.06.2018 19:00:00 19,9 14,0 21,7 17,5 14,9 21 11 34 18 NW 1022,4 20 55 0,0
18.06.2018 18:00:00 21,1 13,5 21,7 17,4 14,9 19 10 30 16 NW 1022,2 18 33 0,0
18.06.2018 17:00:00 20,7 13,2 22,8 17,4 14,9 17 9 29 15 NW 1022,6 19 52 0,0
18.06.2018 16:00:00 19,9 12,4 21,2 17,3 14,9 18 10 27 15 NW 1023,0 20 22 0,0
18.06.2018 15:00:00 19,1 13,7 20,5 17,3 14,9 19 10 33 18 NW 1023,4 20 14 0,0
18.06.2018 14:00:00 17,9 12,8 20,7 17,3 14,9 16 9 28 15 NNW 1023,8 20 7 0,0
18.06.2018 13:00:00 17,2 12,5 20,6 17,3 14,9 17 9 31 17 NW 1024,2 18 10 0,0
18.06.2018 12:00:00 17,1 12,4 21,0 17,3 14,9 19 10 29 16 WNW 1024,0 18 35 0,0
18.06.2018 11:00:00 16,3 11,9 18,9 17,4 14,9 18 10 31 17 WNW 1024,3 14 38 0,0
18.06.2018 10:00:00 15,3 11,5 17,7 17,4 14,9 15 8 29 16 WNW 1024,4 17 45 0,0
18.06.2018 09:00:00 14,7 11,7 14,4 17,5 14,9 12 7 18 10 WNW 1024,3 17 60 0,0
18.06.2018 08:00:00 11,9 10,8 10,8 17,5 14,9 8 4 11 6 WNW 1024,7 14 53 0,0
18.06.2018 07:00:00 10,6 10,1 9,1 17,6 14,9 6 3 8 4 WNW 1025,1 9 27 0,0
18.06.2018 06:00:00 9,9 9,6 8,5 17,7 14,9 6 3 11 6 NW 1025,3 4,7 0 0,0
18.06.2018 05:00:00 10,3 9,7 7,9 17,7 14,9 6 4 10 5 WNW 1025,0 11 0 0,0
18.06.2018 04:00:00 11,0 9,6 9,7 17,8 14,9 8 5 11 6 W 1024,8 15 0 0,0
18.06.2018 03:00:00 12,0 10,6 9,8 17,8 14,9 7 4 13 7 WNW 1024,7 17 0 0,0
18.06.2018 02:00:00 11,9 10,1 10,0 17,8 14,9 6 3 12 6 WNW 1024,7 18 0 0,0
18.06.2018 01:00:00 12,7 11,1 9,9 17,8 14,9 6 3 11 6 WNW 1024,6 20 0 0,0
18.06.2018 00:00:00 13,8 11,0 11,1 17,8 14,9 4 2 5 3 WNW 1024,2 20 0 0,0
17.06.2018 23:00:00 14,4 11,0 12,5 17,7 14,9 3 2 5 3 WSW 1023,9 20 0 0,0
17.06.2018 22:00:00 14,6 10,6 12,0 17,7 14,9 5 3 16 9 WNW 1023,5 15 11 0,0
17.06.2018 21:00:00 16,5 10,8 15,7 17,7 14,9 13 7 22 12 NW 1022,5 40 20 0,0
17.06.2018 20:00:00 16,9 9,8 17,1 17,6 14,9 16 9 29 16 NW 1022,6 44 29 0,0
17.06.2018 19:00:00 17,5 9,9 18,7 17,5 14,9 14 7 27 14 NNW 1022,0 19 17 0,0
17.06.2018 18:00:00 18,7 10,3 19,2 17,5 14,9 18 10 26 14 NW 1021,5 19 21 0,0
17.06.2018 17:00:00 17,4 10,5 18,8 17,4 14,9 11 6 24 13 NNW 1022,1 19 10 0,0
17.06.2018 16:00:00 16,8 9,9 19,4 17,4 14,9 16 9 25 13 NNW 1022,3 20 13 0,0
17.06.2018 15:00:00 16,6 10,0 18,8 17,4 14,9 15 8 29 16 WNW 1022,1 20 11 0,0
17.06.2018 14:00:00 17,2 10,6 17,9 17,4 14,9 13 7 29 16 WNW 1021,8 19 10 0,0
17.06.2018 13:00:00 15,6 10,4 18,6 17,4 14,9 19 10 29 16 WNW 1022,3 19 1 0,0
17.06.2018 12:00:00 15,8 10,1 19,1 17,4 14,9 12 6 19 10 WNW 1021,9 18 17 0,0
17.06.2018 11:00:00 15,1 10,9 15,4 17,5 14,9 14 8 21 11 NW 1022,1 17 18 0,0
17.06.2018 10:00:00 13,7 10,5 14,5 17,5 14,9 13 7 22 12 WNW 1022,6 18 6 0,0
17.06.2018 09:00:00 14,0 11,7 13,8 17,6 14,9 8 4 19 10 NW 1022,1 14 16 0,0
17.06.2018 08:00:00 12,5 11,7 12,8 17,6 14,9 10 6 16 9 NW 1022,4 9 0 0,0
17.06.2018 07:00:00 12,3 11,2 12,3 17,7 14,9 10 5 14 8 NW 1021,8 12 0 0,0
17.06.2018 06:00:00 12,5 11,7 12,4 17,7 14,9 8 4 16 9 NW 1021,4 10 0 0,0
17.06.2018 05:00:00 12,8 11,9 12,7 17,8 14,9 10 6 15 8 NW 1021,2 12 0 0,0
17.06.2018 04:00:00 13,0 12,1 12,8 17,8 14,9 9 5 14 7 NW 1021,0 11 0 0,0
17.06.2018 03:00:00 12,9 12,0 12,8 17,8 14,9 7 4 11 6 WNW 1021,0 12 0 0,0
17.06.2018 02:00:00 13,0 11,6 11,6 17,8 14,8 8 5 11 6 WNW 1021,1 14 0 0,0
17.06.2018 01:00:00 12,9 11,0 11,9 17,8 14,9 5 3 8 4 WNW 1020,9 17 0 0,0
17.06.2018 00:00:00 13,2 10,9 9,4 17,8 14,8 6 3 8 5 WNW 1020,9 17 0 0,0
16.06.2018 23:00:00 14,2 10,6 10,3 17,8 14,9 4 2 11 6 WNW 1020,5 19 0 0,0
16.06.2018 22:00:00 15,5 10,3 14,4 17,7 14,9 7 4 19 10 NNW 1019,6 20 13 0,0
16.06.2018 21:00:00 17,0 11,0 16,8 17,6 14,9 13 7 20 11 NW 1018,6 20 53 0,0
16.06.2018 20:00:00 17,5 11,1 17,9 17,5 14,9 13 7 22 12 WNW 1017,8 20 0 0,0
16.06.2018 19:00:00 18,2 11,7 19,1 17,5 14,9 13 7 25 14 WNW 1017,3 42 20 0,0
16.06.2018 18:00:00 18,8 12,3 21,6 17,4 14,8 16 9 28 15 WNW 1017,0 19 46 0,0
16.06.2018 17:00:00 19,4 13,3 20,8 17,3 14,9 16 9 27 15 W 1016,7 19 5 0,0
16.06.2018 16:00:00 19,1 13,1 20,8 17,3 14,9 16 9 29 16 NW 1016,7 20 31 0,0
16.06.2018 15:00:00 18,4 12,6 20,6 17,2 14,8 17 9 24 13 WNW 1017,2 53 19 0,0

tt = temperature
td = dewpoint
tt 5cm = temperature 5cm
tt -20cm = temperature -20cm
tt -100cm = temperature -100cm
ff = wind speed
fx = gusts
dd = wind direction
ppp = reduced air pressure
vv = visibility
sd = sunshine duration
rr = precipitation

Next stations